User: anonymous
Location: Maiden
(35.5760°N, 81.2120°W)
Time: 15:25:51
(UTC-04:00)
Language:

Cosmos 2151 - Orbit

View from above orbital plane
View from above orbital plane
View from above satellite
View from above satellite

Ground track
Ground track

The orbit data is extracted from the following two-line orbital elements,

1 21422U 91042A   14106.09769530  .00002042  00000-0  20906-3 0  8681
2 21422 082.5006 267.3546 0014786 192.4849 167.6005 14.89980609235919
Epoch (UTC): 16 April 2014 02:20:40
Eccentricity: 0.0014786
inclination: 82.5006°
perigee height: 587 km
apogee height: 608 km
right ascension of ascending node: 267.3546°
argument of perigee: 192.4849°
revolutions per day: 14.89980609
mean anomaly at epoch: 167.6005°
orbit number at epoch: 23591

The dashed part of the orbit path shows where the satellite is in the earth's shadow,  

DLR